Weather past 2 weeks in Saipan, Northern Mariana Islands

Now
81 °F

Light rain. More clouds than sun.


Feels Like: 88 °F
Forecast: 76 / 81 °F
Wind: 8 mph from Northwest

Location: Saipan International Airport

Current Time: Sep 24, 2014 at 3:17:15 PM

Latest Report: Sep 24, 2014 at 2:54 PM


Visibility: 10 mi

Pressure: 29.63 "Hg

Humidity: 88%

Dew point: 77 °F

Location of SaipanLocation

Historic Weather in Saipan — Graph

°F

Saipan temperature yesterday

Maximum temperature yesterday: 85 °F (at 10:54 AM)
Minimum temperature yesterday: 77 °F (at 1:54 AM)
Average temperature yesterday: 81 °F

Past Weeks' High & Low Weather Summary

 TemperatureHumidityPressure
High89 °F (Sep 11, 11:54 AM)100% (Sep 10, 6:47 AM)30.02 "Hg (Sep 10, 6:47 AM)
Low73 °F (Sep 10, 6:47 AM)65% (Sep 10, 12:54 PM)29.62 "Hg (Sep 24, 3:06 AM)
Average81 °F85%29.86 "Hg
* Reported Sep 9 1:54 PM — Sep 24 1:54 PM, Saipan, Weather by CustomWeather, © 2014

Note: Actual official high and low records may vary slightly from our data, if they occured in-between our weather recording intervals... More about our weather records

Advertising

Saipan weather history for previous 24 hours

 ConditionsComfort  
Time TempWeatherWind HumidityBarometerVisibility
1:54 PM
Sep 24
80 °FBroken clouds.10 mph90%29.64 "Hg10 mi
12:54 PM79 °FRain. Fog.14 mph94%29.66 "Hg4 mi
11:54 AM83 °FPartly sunny.7 mph85%29.69 "Hg10 mi
10:54 AM81 °FCloudy.6 mph91%29.72 "Hg10 mi
10:45 AM81 °FHeavy rain. Fog.6 mph94%29.66 "Hg2 mi
10:27 AM81 °FHeavy rain. Fog.13 mph94%29.66 "Hg2 mi
9:54 AM83 °FLight rain. Cloudy.6 mph88%29.73 "Hg10 mi
9:30 AM84 °FPartly sunny.10 mph84%29.67 "Hg10 mi
8:54 AM83 °FScattered clouds.10 mph85%29.72 "Hg10 mi
8:46 AM82 °FLight rain. Broken clouds.10 mph84%29.66 "Hg8 mi
7:54 AM83 °FMore clouds than sun.10 mph85%29.72 "Hg10 mi
6:54 AM81 °FOvercast.14 mph91%29.71 "Hg10 mi
5:54 AM80 °FPartly cloudy.12 mph90%29.69 "Hg10 mi
4:54 AM79 °FPassing clouds.14 mph91%29.68 "Hg10 mi
3:54 AM77 °FPassing clouds.6 mph96%29.68 "Hg10 mi
3:13 AM79 °FLight rain. Passing clouds.12 mph89%29.62 "Hg10 mi
3:06 AM79 °FLight rain. Passing clouds.13 mph89%29.62 "Hg10 mi
2:59 AM79 °FPartly cloudy.12 mph89%29.63 "Hg10 mi
2:44 AM79 °FPartly cloudy.8 mph100%29.63 "Hg10 mi
1:54 AM77 °FPassing clouds.5 mph96%29.70 "Hg10 mi
12:54 AM78 °FRain. Passing clouds.5 mph96%29.72 "Hg7 mi
11:54 PM
Sep 23
79 °FHeavy rain. Partly cloudy.6 mph94%29.74 "Hg7 mi
10:54 PM80 °FPassing clouds.5 mph87%29.75 "Hg10 mi
9:54 PM80 °FPassing clouds.5 mph87%29.76 "Hg10 mi
8:54 PM80 °FClear.6 mph87%29.74 "Hg10 mi
7:54 PM81 °FPassing clouds.7 mph88%29.74 "Hg10 mi
6:54 PM82 °FPassing clouds.9 mph85%29.72 "Hg10 mi
5:54 PM81 °FSunny.7 mph88%29.71 "Hg10 mi
4:54 PM82 °FLight rain. Passing clouds.7 mph88%29.71 "Hg10 mi
3:54 PM80 °FLight rain. Fog.5 mph94%29.71 "Hg5 mi
3:00 PM79 °FLight rain. Fog.9 mph100%29.65 "Hg5 mi
Weather by CustomWeather, © 2014

See weather overviewHow to use our weather pages